Wetterdaten: Sonntag, 05.07.2015
Datum Zeit Auen-Temp. Temp gefhlt Luftfeuchte Luftdruck Regen Wind Richtung Richtung Taupunkt Windben
05.07.2015 00:00 19,7 C 19,6 C 66 % 1024,9 hPa 0,0 mm 0,0 km/h (0 Bft) W-SW 247 13,2 C 0,0 km/h (0 Bft)
05.07.2015 00:05 19,7 C 19,6 C 66 % 1024,9 hPa 0,0 mm 0,0 km/h (0 Bft) O-SO 112 13,2 C 0,0 km/h (0 Bft)
05.07.2015 00:10 19,9 C 19,7 C 66 % 1024,9 hPa 0,0 mm 0,0 km/h (0 Bft) S 180 13,4 C 0,0 km/h (0 Bft)
05.07.2015 00:15 19,9 C 19,8 C 66 % 1025,0 hPa 0,0 mm 0,0 km/h (0 Bft) S 180 13,4 C 0,0 km/h (0 Bft)
05.07.2015 00:20 19,8 C 19,7 C 66 % 1025,0 hPa 0,0 mm 0,0 km/h (0 Bft) W-SW 247 13,3 C 0,0 km/h (0 Bft)
05.07.2015 00:25 19,6 C 19,5 C 66 % 1025,0 hPa 0,0 mm 0,0 km/h (0 Bft) S 180 13,1 C 0,0 km/h (0 Bft)
05.07.2015 00:30 19,2 C 19,2 C 67 % 1025,0 hPa 0,0 mm 0,0 km/h (0 Bft) S 180 12,9 C 0,0 km/h (0 Bft)
05.07.2015 00:35 19,3 C 19,2 C 68 % 1024,8 hPa 0,0 mm 0,0 km/h (0 Bft) SO 135 13,2 C 0,0 km/h (0 Bft)
05.07.2015 00:40 19,1 C 19,0 C 68 % 1024,8 hPa 0,0 mm 0,0 km/h (0 Bft) S 180 13,1 C 0,0 km/h (0 Bft)
05.07.2015 00:45 19,1 C 19,0 C 67 % 1024,8 hPa 0,0 mm 0,0 km/h (0 Bft) NW 315 12,8 C 0,0 km/h (0 Bft)
05.07.2015 00:50 19,0 C 18,9 C 67 % 1024,8 hPa 0,0 mm 0,0 km/h (0 Bft) W 270 12,7 C 0,0 km/h (0 Bft)
05.07.2015 00:55 19,0 C 18,9 C 68 % 1024,7 hPa 0,0 mm 0,0 km/h (0 Bft) W 270 13,0 C 0,0 km/h (0 Bft)
05.07.2015 01:00 19,1 C 19,0 C 68 % 1024,7 hPa 0,0 mm 0,0 km/h (0 Bft) S 180 13,1 C 0,0 km/h (0 Bft)
05.07.2015 01:05 18,9 C 18,9 C 68 % 1024,7 hPa 0,0 mm 0,0 km/h (0 Bft) NW 315 12,9 C 0,0 km/h (0 Bft)
05.07.2015 01:10 18,7 C 18,7 C 69 % 1024,7 hPa 0,0 mm 0,0 km/h (0 Bft) N-NO 22 12,9 C 0,0 km/h (0 Bft)
05.07.2015 01:15 19,1 C 18,9 C 69 % 1024,7 hPa 0,0 mm 0,0 km/h (0 Bft) NO 45 13,3 C 0,0 km/h (0 Bft)
05.07.2015 01:18 18,7 C 18,6 C 69 % 1024,7 hPa 0,0 mm 0,0 km/h (0 Bft) O-NO 67 12,9 C 0,0 km/h (0 Bft)
05.07.2015 01:20 18,7 C 18,6 C 69 % 1024,7 hPa 0,0 mm 0,0 km/h (0 Bft) O-NO 67 12,9 C 0,0 km/h (0 Bft)
05.07.2015 01:25 18,5 C 18,5 C 69 % 1024,7 hPa 0,0 mm 0,0 km/h (0 Bft) NO 45 12,7 C 0,0 km/h (0 Bft)
05.07.2015 01:30 18,3 C 18,3 C 69 % 1024,7 hPa 0,0 mm 0,0 km/h (0 Bft) N-NO 22 12,5 C 0,0 km/h (0 Bft)
05.07.2015 01:35 18,2 C 18,2 C 70 % 1024,4 hPa 0,0 mm 0,0 km/h (0 Bft) O-NO 67 12,6 C 0,0 km/h (0 Bft)
05.07.2015 01:40 18,3 C 18,2 C 70 % 1024,4 hPa 0,0 mm 0,0 km/h (0 Bft) W-SW 247 12,7 C 0,0 km/h (0 Bft)
05.07.2015 01:45 18,5 C 18,4 C 71 % 1024,4 hPa 0,0 mm 0,3 km/h (0 Bft) W-SW 247 13,1 C 2,8 km/h (1 Bft)
05.07.2015 01:50 18,6 C 18,6 C 71 % 1024,4 hPa 0,0 mm 0,3 km/h (0 Bft) N-NO 22 13,2 C 0,0 km/h (0 Bft)
05.07.2015 01:55 18,6 C 18,6 C 70 % 1024,4 hPa 0,0 mm 0,0 km/h (0 Bft) N-NO 22 13,0 C 0,0 km/h (0 Bft)
05.07.2015 02:01 18,6 C 18,6 C 70 % 1024,4 hPa 0,0 mm 0,0 km/h (0 Bft) N-NO 22 13,0 C 0,0 km/h (0 Bft)
05.07.2015 02:05 18,5 C 18,5 C 70 % 1024,4 hPa 0,0 mm 0,0 km/h (0 Bft) N-NO 22 12,9 C 0,0 km/h (0 Bft)
05.07.2015 02:10 18,5 C 18,4 C 71 % 1024,4 hPa 0,0 mm 0,0 km/h (0 Bft) N-NO 22 13,1 C 0,0 km/h (0 Bft)
05.07.2015 02:15 18,2 C 18,2 C 71 % 1024,2 hPa 0,0 mm 0,0 km/h (0 Bft) N-NO 22 12,9 C 0,0 km/h (0 Bft)
05.07.2015 02:20 18,3 C 18,2 C 72 % 1024,2 hPa 0,0 mm 0,0 km/h (0 Bft) N-NO 22 13,2 C 0,0 km/h (0 Bft)
05.07.2015 02:25 18,1 C 18,0 C 72 % 1024,2 hPa 0,0 mm 0,0 km/h (0 Bft) O-SO 112 13,0 C 0,0 km/h (0 Bft)
05.07.2015 02:30 18,0 C 18,0 C 72 % 1024,2 hPa 0,0 mm 0,0 km/h (0 Bft) N-NW 337 12,9 C 0,0 km/h (0 Bft)
05.07.2015 02:35 18,1 C 18,0 C 73 % 1024,1 hPa 0,0 mm 0,0 km/h (0 Bft) N-NO 22 13,2 C 0,0 km/h (0 Bft)
05.07.2015 02:40 18,0 C 17,9 C 73 % 1024,1 hPa 0,0 mm 0,0 km/h (0 Bft) N 360 13,1 C 0,0 km/h (0 Bft)
05.07.2015 02:45 18,1 C 17,9 C 73 % 1024,1 hPa 0,0 mm 0,0 km/h (0 Bft) W-NW 292 13,2 C 0,0 km/h (0 Bft)
05.07.2015 02:50 18,5 C 18,3 C 73 % 1024,1 hPa 0,0 mm 0,5 km/h (0 Bft) S-SW 202 13,6 C 4,7 km/h (1 Bft)
05.07.2015 02:55 18,5 C 18,4 C 73 % 1024,1 hPa 0,0 mm 0,5 km/h (0 Bft) W-SW 247 13,6 C 0,0 km/h (0 Bft)
05.07.2015 03:00 18,4 C 18,3 C 73 % 1024,1 hPa 0,0 mm 0,0 km/h (0 Bft) W-SW 247 13,5 C 0,0 km/h (0 Bft)
05.07.2015 03:05 18,4 C 18,3 C 73 % 1024,1 hPa 0,0 mm 0,0 km/h (0 Bft) W-SW 247 13,5 C 0,0 km/h (0 Bft)
05.07.2015 03:10 18,3 C 18,2 C 73 % 1024,1 hPa 0,0 mm 0,0 km/h (0 Bft) SW 225 13,4 C 0,0 km/h (0 Bft)
05.07.2015 03:15 18,2 C 18,1 C 73 % 1024,2 hPa 0,0 mm 0,0 km/h (0 Bft) W-SW 247 13,3 C 0,0 km/h (0 Bft)
05.07.2015 03:20 18,1 C 18,0 C 73 % 1024,2 hPa 0,0 mm 0,0 km/h (0 Bft) W-NW 292 13,2 C 0,0 km/h (0 Bft)
05.07.2015 03:25 17,9 C 17,8 C 73 % 1024,2 hPa 0,0 mm 0,0 km/h (0 Bft) NO 45 13,0 C 0,0 km/h (0 Bft)
05.07.2015 03:30 17,9 C 17,7 C 74 % 1024,2 hPa 0,0 mm 0,0 km/h (0 Bft) NO 45 13,2 C 0,0 km/h (0 Bft)
05.07.2015 03:35 17,6 C 17,5 C 74 % 1024,1 hPa 0,0 mm 0,0 km/h (0 Bft) N-NO 22 12,9 C 0,0 km/h (0 Bft)
05.07.2015 03:40 17,4 C 17,3 C 74 % 1024,1 hPa 0,0 mm 0,0 km/h (0 Bft) N-NO 22 12,7 C 0,0 km/h (0 Bft)
05.07.2015 03:45 17,5 C 17,3 C 75 % 1024,1 hPa 0,0 mm 0,0 km/h (0 Bft) NO 45 13,0 C 0,0 km/h (0 Bft)
05.07.2015 03:50 17,2 C 17,1 C 75 % 1024,1 hPa 0,0 mm 0,0 km/h (0 Bft) NO 45 12,7 C 0,0 km/h (0 Bft)
05.07.2015 03:55 17,1 C 17,0 C 75 % 1024,1 hPa 0,0 mm 0,0 km/h (0 Bft) NO 45 12,6 C 0,0 km/h (0 Bft)
05.07.2015 04:00 17,1 C 16,9 C 76 % 1024,1 hPa 0,0 mm 0,0 km/h (0 Bft) W-SW 247 12,8 C 0,0 km/h (0 Bft)
05.07.2015 04:05 17,3 C 17,1 C 76 % 1024,1 hPa 0,0 mm 0,0 km/h (0 Bft) NW 315 13,0 C 0,0 km/h (0 Bft)
05.07.2015 04:10 17,3 C 17,2 C 76 % 1024,1 hPa 0,0 mm 0,0 km/h (0 Bft) NW 315 13,0 C 0,0 km/h (0 Bft)
05.07.2015 04:15 17,2 C 17,1 C 76 % 1023,9 hPa 0,0 mm 0,0 km/h (0 Bft) NO 45 12,9 C 0,0 km/h (0 Bft)
05.07.2015 04:20 17,1 C 17,1 C 77 % 1023,9 hPa 0,0 mm 0,0 km/h (0 Bft) O 90 13,0 C 0,0 km/h (0 Bft)
05.07.2015 04:25 17,1 C 17,0 C 77 % 1023,9 hPa 0,0 mm 0,0 km/h (0 Bft) W 270 13,0 C 0,0 km/h (0 Bft)
05.07.2015 04:30 17,1 C 17,0 C 77 % 1023,9 hPa 0,0 mm 0,0 km/h (0 Bft) N-NO 22 13,0 C 0,0 km/h (0 Bft)
05.07.2015 04:35 17,0 C 16,9 C 77 % 1023,8 hPa 0,0 mm 0,0 km/h (0 Bft) NO 45 12,9 C 0,0 km/h (0 Bft)
05.07.2015 04:40 17,1 C 16,9 C 78 % 1023,8 hPa 0,0 mm 0,0 km/h (0 Bft) NO 45 13,2 C 0,0 km/h (0 Bft)
05.07.2015 04:45 16,8 C 16,7 C 78 % 1023,8 hPa 0,0 mm 0,0 km/h (0 Bft) NO 45 12,9 C 0,0 km/h (0 Bft)
05.07.2015 04:50 16,6 C 16,5 C 78 % 1023,8 hPa 0,0 mm 0,0 km/h (0 Bft) O-NO 67 12,7 C 0,0 km/h (0 Bft)
05.07.2015 04:55 16,6 C 16,5 C 78 % 1023,8 hPa 0,0 mm 0,0 km/h (0 Bft) O-NO 67 12,7 C 0,0 km/h (0 Bft)
05.07.2015 05:00 16,6 C 16,5 C 78 % 1023,8 hPa 0,0 mm 0,0 km/h (0 Bft) W-SW 247 12,7 C 0,0 km/h (0 Bft)
05.07.2015 05:05 16,7 C 16,6 C 79 % 1023,8 hPa 0,0 mm 0,0 km/h (0 Bft) NW 315 13,0 C 0,0 km/h (0 Bft)
05.07.2015 05:10 16,9 C 16,8 C 79 % 1023,8 hPa 0,0 mm 0,0 km/h (0 Bft) NW 315 13,2 C 0,0 km/h (0 Bft)
05.07.2015 05:15 16,9 C 16,9 C 79 % 1023,6 hPa 0,0 mm 0,0 km/h (0 Bft) N-NO 22 13,2 C 0,0 km/h (0 Bft)
05.07.2015 05:20 17,1 C 17,0 C 78 % 1023,6 hPa 0,0 mm 0,0 km/h (0 Bft) N-NO 22 13,2 C 0,0 km/h (0 Bft)
05.07.2015 05:25 17,0 C 17,0 C 78 % 1023,6 hPa 0,0 mm 0,0 km/h (0 Bft) N-NO 22 13,1 C 0,0 km/h (0 Bft)
05.07.2015 05:30 17,2 C 17,1 C 78 % 1023,6 hPa 0,0 mm 0,0 km/h (0 Bft) NO 45 13,3 C 0,0 km/h (0 Bft)
05.07.2015 05:35 17,3 C 17,3 C 78 % 1023,5 hPa 0,0 mm 0,0 km/h (0 Bft) NO 45 13,4 C 0,0 km/h (0 Bft)
05.07.2015 05:40 17,3 C 17,3 C 77 % 1023,5 hPa 0,0 mm 0,0 km/h (0 Bft) NO 45 13,2 C 0,0 km/h (0 Bft)
05.07.2015 05:45 17,2 C 17,2 C 77 % 1023,5 hPa 0,0 mm 0,0 km/h (0 Bft) N-NO 22 13,1 C 0,0 km/h (0 Bft)
05.07.2015 05:50 17,4 C 17,4 C 77 % 1023,5 hPa 0,0 mm 0,0 km/h (0 Bft) N 360 13,3 C 0,0 km/h (0 Bft)
05.07.2015 05:55 17,3 C 17,3 C 77 % 1023,6 hPa 0,0 mm 0,0 km/h (0 Bft) O-NO 67 13,2 C 0,0 km/h (0 Bft)
05.07.2015 06:00 17,3 C 17,4 C 77 % 1023,6 hPa 0,0 mm 0,0 km/h (0 Bft) N-NO 22 13,2 C 0,0 km/h (0 Bft)
05.07.2015 06:05 17,4 C 17,4 C 77 % 1023,6 hPa 0,0 mm 0,0 km/h (0 Bft) N-NO 22 13,3 C 0,0 km/h (0 Bft)
05.07.2015 06:10 17,8 C 18,1 C 77 % 1023,6 hPa 0,0 mm 0,0 km/h (0 Bft) N-NO 22 13,7 C 0,0 km/h (0 Bft)
05.07.2015 06:15 17,9 C 18,5 C 76 % 1023,5 hPa 0,0 mm 0,0 km/h (0 Bft) N-NO 22 13,6 C 0,0 km/h (0 Bft)
05.07.2015 06:20 18,2 C 19,1 C 76 % 1023,5 hPa 0,0 mm 0,0 km/h (0 Bft) N-NO 22 13,9 C 0,0 km/h (0 Bft)
05.07.2015 06:25 18,4 C 19,6 C 74 % 1023,5 hPa 0,0 mm 0,0 km/h (0 Bft) NO 45 13,7 C 0,0 km/h (0 Bft)
05.07.2015 06:30 18,7 C 20,4 C 73 % 1023,5 hPa 0,0 mm 0,0 km/h (0 Bft) W-SW 247 13,8 C 0,0 km/h (0 Bft)
05.07.2015 06:35 18,9 C 21,3 C 73 % 1023,4 hPa 0,0 mm 0,0 km/h (0 Bft) W-NW 292 13,9 C 0,0 km/h (0 Bft)
05.07.2015 06:40 19,5 C 22,6 C 72 % 1023,4 hPa 0,0 mm 0,0 km/h (0 Bft) W-SW 247 14,3 C 0,0 km/h (0 Bft)
05.07.2015 06:45 19,9 C 23,4 C 72 % 1023,4 hPa 0,0 mm 0,0 km/h (0 Bft) N 360 14,7 C 0,0 km/h (0 Bft)
05.07.2015 06:50 20,4 C 24,4 C 71 % 1023,4 hPa 0,0 mm 0,0 km/h (0 Bft) NO 45 15,0 C 0,0 km/h (0 Bft)
05.07.2015 06:55 20,7 C 25,2 C 71 % 1023,5 hPa 0,0 mm 0,0 km/h (0 Bft) S 180 15,2 C 0,0 km/h (0 Bft)
05.07.2015 07:00 21,3 C 26,3 C 69 % 1023,5 hPa 0,0 mm 0,0 km/h (0 Bft) O-NO 67 15,4 C 0,0 km/h (0 Bft)
05.07.2015 07:05 21,9 C 27,2 C 70 % 1023,5 hPa 0,0 mm 0,0 km/h (0 Bft) NW 315 16,2 C 0,0 km/h (0 Bft)
05.07.2015 07:10 22,3 C 27,9 C 67 % 1023,5 hPa 0,0 mm 0,0 km/h (0 Bft) NO 45 15,9 C 0,0 km/h (0 Bft)
05.07.2015 07:15 22,4 C 28,3 C 67 % 1023,6 hPa 0,0 mm 0,0 km/h (0 Bft) O-SO 112 16,0 C 0,0 km/h (0 Bft)
05.07.2015 07:18 23,0 C 29,2 C 65 % 1023,6 hPa 0,0 mm 0,0 km/h (0 Bft) N-NW 337 16,1 C 0,0 km/h (0 Bft)
05.07.2015 07:21 23,0 C 29,2 C 65 % 1023,6 hPa 0,0 mm 0,0 km/h (0 Bft) N-NW 337 16,1 C 0,0 km/h (0 Bft)
05.07.2015 07:25 23,3 C 29,9 C 65 % 1023,6 hPa 0,0 mm 0,0 km/h (0 Bft) N 360 16,3 C 0,0 km/h (0 Bft)
05.07.2015 07:30 23,8 C 30,8 C 65 % 1023,6 hPa 0,0 mm 0,0 km/h (0 Bft) N-NO 22 16,8 C 0,0 km/h (0 Bft)
05.07.2015 07:35 24,0 C 31,4 C 63 % 1023,4 hPa 0,0 mm 0,0 km/h (0 Bft) S 180 16,5 C 0,0 km/h (0 Bft)
05.07.2015 07:40 23,9 C 31,7 C 63 % 1023,4 hPa 0,0 mm 0,0 km/h (0 Bft) SO 135 16,4 C 0,0 km/h (0 Bft)
05.07.2015 07:45 24,3 C 31,8 C 63 % 1023,4 hPa 0,0 mm 0,0 km/h (0 Bft) W-NW 292 16,8 C 0,0 km/h (0 Bft)
05.07.2015 07:50 24,5 C 32,2 C 61 % 1023,4 hPa 0,0 mm 0,3 km/h (0 Bft) W 270 16,5 C 2,8 km/h (1 Bft)
05.07.2015 07:55 24,6 C 32,9 C 61 % 1023,5 hPa 0,0 mm 0,3 km/h (0 Bft) SO 135 16,6 C 0,0 km/h (0 Bft)
05.07.2015 08:00 24,5 C 33,5 C 60 % 1023,5 hPa 0,0 mm 0,0 km/h (0 Bft) O-SO 112 16,2 C 0,0 km/h (0 Bft)
05.07.2015 08:05 24,6 C 33,4 C 60 % 1023,5 hPa 0,0 mm 0,0 km/h (0 Bft) O-NO 67 16,3 C 0,0 km/h (0 Bft)
05.07.2015 08:10 24,8 C 33,5 C 60 % 1023,5 hPa 0,0 mm 0,0 km/h (0 Bft) W-NW 292 16,5 C 0,0 km/h (0 Bft)
05.07.2015 08:15 25,0 C 34,0 C 59 % 1023,2 hPa 0,0 mm 0,0 km/h (0 Bft) NW 315 16,4 C 0,0 km/h (0 Bft)
05.07.2015 08:20 25,1 C 34,1 C 59 % 1023,2 hPa 0,0 mm 0,0 km/h (0 Bft) NO 45 16,5 C 0,0 km/h (0 Bft)
05.07.2015 08:25 25,3 C 34,4 C 59 % 1023,2 hPa 0,0 mm 0,0 km/h (0 Bft) NO 45 16,7 C 0,0 km/h (0 Bft)
05.07.2015 08:30 25,2 C 35,0 C 59 % 1023,2 hPa 0,0 mm 0,0 km/h (0 Bft) O-NO 67 16,6 C 0,0 km/h (0 Bft)
05.07.2015 08:35 25,7 C 35,1 C 59 % 1023,2 hPa 0,0 mm 0,0 km/h (0 Bft) O-SO 112 17,1 C 0,0 km/h (0 Bft)
05.07.2015 08:40 26,0 C 36,3 C 57 % 1023,2 hPa 0,0 mm 0,0 km/h (0 Bft) NO 45 16,8 C 0,0 km/h (0 Bft)
05.07.2015 08:45 26,1 C 37,0 C 58 % 1023,2 hPa 0,0 mm 0,0 km/h (0 Bft) O-NO 67 17,2 C 0,0 km/h (0 Bft)
05.07.2015 08:50 26,4 C 37,6 C 57 % 1023,2 hPa 0,0 mm 0,0 km/h (0 Bft) W-SW 247 17,2 C 0,0 km/h (0 Bft)
05.07.2015 08:55 26,4 C 37,9 C 57 % 1023,2 hPa 0,0 mm 0,0 km/h (0 Bft) SO 135 17,2 C 0,0 km/h (0 Bft)
05.07.2015 09:00 26,7 C 38,2 C 57 % 1023,2 hPa 0,0 mm 0,0 km/h (0 Bft) SO 135 17,5 C 0,0 km/h (0 Bft)
05.07.2015 09:05 26,9 C 38,1 C 57 % 1023,2 hPa 0,0 mm 0,0 km/h (0 Bft) O-SO 112 17,6 C 0,0 km/h (0 Bft)
05.07.2015 09:10 27,4 C 37,4 C 56 % 1023,2 hPa 0,0 mm 0,0 km/h (0 Bft) O-NO 67 17,8 C 0,0 km/h (0 Bft)
05.07.2015 09:15 27,7 C 37,6 C 56 % 1023,4 hPa 0,0 mm 0,0 km/h (0 Bft) O-NO 67 18,1 C 0,0 km/h (0 Bft)
05.07.2015 09:20 28,3 C 37,9 C 55 % 1023,4 hPa 0,0 mm 0,5 km/h (0 Bft) N-NO 22 18,4 C 3,4 km/h (1 Bft)
05.07.2015 09:25 28,7 C 37,2 C 54 % 1023,4 hPa 0,0 mm 1,3 km/h (1 Bft) NO 45 18,5 C 3,4 km/h (1 Bft)
05.07.2015 09:30 29,1 C 36,5 C 53 % 1023,4 hPa 0,0 mm 2,3 km/h (1 Bft) W 270 18,5 C 7,3 km/h (2 Bft)
05.07.2015 09:35 29,4 C 36,4 C 53 % 1023,5 hPa 0,0 mm 2,8 km/h (1 Bft) N 360 18,8 C 4,7 km/h (1 Bft)
05.07.2015 09:40 29,5 C 36,4 C 53 % 1023,5 hPa 0,0 mm 2,6 km/h (1 Bft) NW 315 18,9 C 7,8 km/h (2 Bft)
05.07.2015 09:45 29,5 C 36,4 C 53 % 1023,5 hPa 0,0 mm 2,6 km/h (1 Bft) O-SO 112 18,9 C 0,0 km/h (0 Bft)
05.07.2015 09:50 29,7 C 37,1 C 52 % 1023,5 hPa 0,0 mm 1,8 km/h (1 Bft) O-SO 112 18,8 C 0,0 km/h (0 Bft)
05.07.2015 09:55 29,6 C 37,5 C 51 % 1023,8 hPa 0,0 mm 0,8 km/h (0 Bft) N-NW 337 18,4 C 4,7 km/h (1 Bft)
05.07.2015 10:00 29,9 C 37,0 C 50 % 1023,8 hPa 0,0 mm 2,3 km/h (1 Bft) O 90 18,3 C 0,0 km/h (0 Bft)
05.07.2015 10:05 29,9 C 36,7 C 52 % 1023,8 hPa 0,0 mm 3,1 km/h (1 Bft) SO 135 19,0 C 0,0 km/h (0 Bft)
05.07.2015 10:10 30,2 C 36,8 C 50 % 1023,8 hPa 0,0 mm 2,6 km/h (1 Bft) N-NO 22 18,6 C 13,2 km/h (3 Bft)
05.07.2015 10:15 30,6 C 37,3 C 49 % 1023,9 hPa 0,0 mm 2,1 km/h (1 Bft) O-NO 67 18,6 C 6,7 km/h (2 Bft)
05.07.2015 10:20 31,0 C 37,7 C 48 % 1023,9 hPa 0,0 mm 1,6 km/h (1 Bft) NO 45 18,7 C 6,5 km/h (2 Bft)
05.07.2015 10:25 30,9 C 37,5 C 47 % 1023,9 hPa 0,0 mm 3,1 km/h (1 Bft) O-NO 67 18,2 C 6,0 km/h (2 Bft)
05.07.2015 10:30 30,8 C 36,7 C 46 % 1023,9 hPa 0,0 mm 5,4 km/h (1 Bft) NO 45 17,8 C 14,0 km/h (3 Bft)
05.07.2015 10:35 30,5 C 36,2 C 46 % 1023,8 hPa 0,0 mm 6,2 km/h (2 Bft) O-SO 112 17,5 C 0,0 km/h (0 Bft)
05.07.2015 10:40 30,7 C 36,5 C 46 % 1023,8 hPa 0,0 mm 4,1 km/h (1 Bft) NO 45 17,7 C 8,3 km/h (2 Bft)
05.07.2015 10:45 30,6 C 36,5 C 46 % 1023,8 hPa 0,0 mm 3,4 km/h (1 Bft) NO 45 17,6 C 7,8 km/h (2 Bft)
05.07.2015 10:50 30,5 C 36,0 C 45 % 1023,8 hPa 0,0 mm 5,7 km/h (1 Bft) O-SO 112 17,2 C 6,0 km/h (2 Bft)
05.07.2015 10:55 30,6 C 36,0 C 45 % 1023,9 hPa 0,0 mm 4,9 km/h (1 Bft) NO 45 17,3 C 2,6 km/h (1 Bft)
05.07.2015 11:00 30,6 C 36,4 C 44 % 1023,9 hPa 0,0 mm 3,6 km/h (1 Bft) O-NO 67 16,9 C 5,2 km/h (1 Bft)
05.07.2015 11:05 30,9 C 36,5 C 46 % 1023,9 hPa 0,0 mm 2,8 km/h (1 Bft) O-NO 67 17,9 C 4,4 km/h (1 Bft)
05.07.2015 11:10 31,1 C 36,7 C 44 % 1023,9 hPa 0,0 mm 3,9 km/h (1 Bft) NO 45 17,4 C 9,6 km/h (2 Bft)
05.07.2015 11:15 31,1 C 36,5 C 44 % 1023,9 hPa 0,0 mm 4,4 km/h (1 Bft) O 90 17,4 C 6,0 km/h (2 Bft)
05.07.2015 11:20 30,8 C 35,9 C 44 % 1023,9 hPa 0,0 mm 7,3 km/h (2 Bft) NO 45 17,1 C 14,8 km/h (3 Bft)
05.07.2015 11:25 30,7 C 35,3 C 43 % 1023,9 hPa 0,0 mm 9,1 km/h (2 Bft) O-NO 67 16,7 C 6,0 km/h (2 Bft)
05.07.2015 11:30 30,9 C 35,4 C 43 % 1023,9 hPa 0,0 mm 7,5 km/h (2 Bft) N 360 16,8 C 17,6 km/h (3 Bft)
05.07.2015 11:35 30,8 C 35,2 C 42 % 1023,8 hPa 0,0 mm 7,3 km/h (2 Bft) SO 135 16,4 C 5,2 km/h (1 Bft)
05.07.2015 11:40 30,9 C 35,4 C 43 % 1023,8 hPa 0,0 mm 7,0 km/h (2 Bft) N-NO 22 16,8 C 14,5 km/h (3 Bft)
05.07.2015 11:45 31,0 C 35,4 C 43 % 1023,8 hPa 0,0 mm 6,5 km/h (2 Bft) O-NO 67 16,9 C 12,9 km/h (3 Bft)
05.07.2015 11:50 31,2 C 35,7 C 41 % 1023,8 hPa 0,0 mm 6,0 km/h (2 Bft) O-SO 112 16,4 C 2,6 km/h (1 Bft)
05.07.2015 11:55 31,3 C 36,1 C 43 % 1023,7 hPa 0,0 mm 4,7 km/h (1 Bft) O-NO 67 17,2 C 5,2 km/h (1 Bft)
05.07.2015 12:00 31,4 C 36,2 C 43 % 1023,7 hPa 0,0 mm 4,7 km/h (1 Bft) O-SO 112 17,3 C 7,8 km/h (2 Bft)
05.07.2015 12:05 31,4 C 36,2 C 42 % 1023,7 hPa 0,0 mm 5,7 km/h (1 Bft) N-NO 22 16,9 C 10,9 km/h (2 Bft)
05.07.2015 12:10 31,3 C 35,9 C 43 % 1023,7 hPa 0,0 mm 7,0 km/h (2 Bft) NO 45 17,2 C 8,0 km/h (2 Bft)
05.07.2015 12:15 31,5 C 36,0 C 43 % 1023,6 hPa 0,0 mm 5,2 km/h (1 Bft) N 360 17,4 C 3,4 km/h (1 Bft)
05.07.2015 12:20 31,4 C 36,2 C 42 % 1023,6 hPa 0,0 mm 5,4 km/h (1 Bft) O-NO 67 16,9 C 7,8 km/h (2 Bft)
05.07.2015 12:25 31,5 C 36,0 C 41 % 1023,6 hPa 0,0 mm 7,0 km/h (2 Bft) O-NO 67 16,6 C 8,8 km/h (2 Bft)
05.07.2015 12:30 31,6 C 36,0 C 42 % 1023,6 hPa 0,0 mm 7,0 km/h (2 Bft) SO 135 17,1 C 6,7 km/h (2 Bft)
05.07.2015 12:35 31,6 C 36,0 C 42 % 1023,7 hPa 0,0 mm 6,0 km/h (2 Bft) O-NO 67 17,1 C 5,4 km/h (1 Bft)
05.07.2015 12:40 31,7 C 36,5 C 42 % 1023,7 hPa 0,0 mm 5,2 km/h (1 Bft) N-NW 337 17,2 C 5,2 km/h (1 Bft)
05.07.2015 12:45 32,2 C 36,7 C 42 % 1023,7 hPa 0,0 mm 5,2 km/h (1 Bft) NO 45 17,6 C 13,5 km/h (3 Bft)
05.07.2015 12:50 31,9 C 36,5 C 41 % 1023,7 hPa 0,0 mm 6,7 km/h (2 Bft) O-SO 112 17,0 C 7,0 km/h (2 Bft)
05.07.2015 12:55 31,8 C 36,4 C 40 % 1023,3 hPa 0,0 mm 6,7 km/h (2 Bft) NW 315 16,5 C 7,0 km/h (2 Bft)
05.07.2015 13:00 32,4 C 37,0 C 42 % 1023,3 hPa 0,0 mm 4,1 km/h (1 Bft) O-NO 67 17,8 C 8,8 km/h (2 Bft)
05.07.2015 13:05 32,3 C 36,9 C 39 % 1023,3 hPa 0,0 mm 4,7 km/h (1 Bft) NO 45 16,5 C 3,9 km/h (1 Bft)
05.07.2015 13:10 32,2 C 36,6 C 39 % 1023,3 hPa 0,0 mm 6,7 km/h (2 Bft) N-NO 22 16,5 C 4,1 km/h (1 Bft)
05.07.2015 13:15 32,2 C 36,7 C 39 % 1023,3 hPa 0,0 mm 6,5 km/h (2 Bft) N-NW 337 16,5 C 11,9 km/h (2 Bft)
05.07.2015 13:20 32,3 C 36,4 C 39 % 1023,3 hPa 0,0 mm 5,2 km/h (1 Bft) S-SO 157 16,5 C 0,0 km/h (0 Bft)
05.07.2015 13:22 32,3 C 36,4 C 39 % 1023,3 hPa 0,0 mm 5,2 km/h (1 Bft) S-SO 157 16,5 C 0,0 km/h (0 Bft)
05.07.2015 13:25 32,6 C 36,0 C 39 % 1023,3 hPa 0,0 mm 5,7 km/h (1 Bft) NO 45 16,8 C 12,7 km/h (3 Bft)
05.07.2015 13:30 32,9 C 35,6 C 39 % 1023,3 hPa 0,0 mm 3,4 km/h (1 Bft) O-NO 67 17,1 C 3,1 km/h (1 Bft)
05.07.2015 13:35 32,8 C 35,6 C 39 % 1023,1 hPa 0,0 mm 3,9 km/h (1 Bft) N 360 17,0 C 12,9 km/h (3 Bft)
05.07.2015 13:40 33,0 C 36,0 C 38 % 1023,1 hPa 0,0 mm 4,1 km/h (1 Bft) N-NO 22 16,8 C 7,8 km/h (2 Bft)
05.07.2015 13:45 32,9 C 36,5 C 38 % 1023,1 hPa 0,0 mm 5,2 km/h (1 Bft) O-SO 112 16,7 C 5,7 km/h (1 Bft)
05.07.2015 13:50 32,9 C 37,3 C 38 % 1023,1 hPa 0,0 mm 4,1 km/h (1 Bft) N-NO 22 16,7 C 6,7 km/h (2 Bft)
05.07.2015 13:55 33,1 C 37,8 C 37 % 1022,9 hPa 0,0 mm 2,3 km/h (1 Bft) O-NO 67 16,4 C 0,0 km/h (0 Bft)
05.07.2015 14:00 32,9 C 37,8 C 37 % 1022,9 hPa 0,0 mm 3,9 km/h (1 Bft) O-NO 67 16,2 C 8,0 km/h (2 Bft)
05.07.2015 14:05 32,8 C 37,7 C 36 % 1022,9 hPa 0,0 mm 5,7 km/h (1 Bft) O-NO 67 15,7 C 8,3 km/h (2 Bft)
05.07.2015 14:10 33,2 C 38,0 C 36 % 1022,9 hPa 0,0 mm 4,1 km/h (1 Bft) NW 315 16,1 C 6,7 km/h (2 Bft)
05.07.2015 14:15 33,3 C 38,2 C 35 % 1022,6 hPa 0,0 mm 2,8 km/h (1 Bft) NW 315 15,7 C 4,7 km/h (1 Bft)
05.07.2015 14:20 33,5 C 38,3 C 35 % 1022,6 hPa 0,0 mm 4,4 km/h (1 Bft) NW 315 15,9 C 4,1 km/h (1 Bft)
05.07.2015 14:25 33,4 C 38,1 C 36 % 1022,6 hPa 0,0 mm 5,4 km/h (1 Bft) O-NO 67 16,3 C 11,9 km/h (2 Bft)
05.07.2015 14:30 33,2 C 37,7 C 36 % 1022,6 hPa 0,0 mm 5,7 km/h (1 Bft) NO 45 16,1 C 3,9 km/h (1 Bft)
05.07.2015 14:35 33,3 C 38,1 C 37 % 1022,4 hPa 0,0 mm 4,9 km/h (1 Bft) N 360 16,6 C 11,1 km/h (2 Bft)
05.07.2015 14:40 33,5 C 38,4 C 36 % 1022,4 hPa 0,0 mm 2,6 km/h (1 Bft) SO 135 16,3 C 0,0 km/h (0 Bft)
05.07.2015 14:45 33,4 C 38,5 C 35 % 1022,4 hPa 0,0 mm 4,1 km/h (1 Bft) NO 45 15,8 C 9,1 km/h (2 Bft)
05.07.2015 14:50 33,5 C 38,1 C 36 % 1022,4 hPa 0,0 mm 6,5 km/h (2 Bft) W-NW 292 16,3 C 13,7 km/h (3 Bft)
05.07.2015 14:55 33,6 C 37,6 C 35 % 1022,2 hPa 0,0 mm 7,5 km/h (2 Bft) W-SW 247 16,0 C 6,2 km/h (2 Bft)
05.07.2015 15:00 33,6 C 37,6 C 36 % 1022,2 hPa 0,0 mm 6,2 km/h (2 Bft) N-NW 337 16,4 C 0,0 km/h (0 Bft)
05.07.2015 15:05 33,6 C 37,6 C 35 % 1022,2 hPa 0,0 mm 5,7 km/h (1 Bft) N-NW 337 16,0 C 3,6 km/h (1 Bft)
05.07.2015 15:10 33,7 C 38,1 C 35 % 1022,2 hPa 0,0 mm 3,9 km/h (1 Bft) O-SO 112 16,1 C 0,0 km/h (0 Bft)
05.07.2015 15:15 33,8 C 38,5 C 35 % 1022,1 hPa 0,0 mm 3,6 km/h (1 Bft) O-NO 67 16,2 C 8,5 km/h (2 Bft)
05.07.2015 15:20 33,6 C 38,1 C 35 % 1022,1 hPa 0,0 mm 6,0 km/h (2 Bft) NW 315 16,0 C 8,3 km/h (2 Bft)
05.07.2015 15:25 33,6 C 38,0 C 34 % 1022,1 hPa 0,0 mm 8,0 km/h (2 Bft) O-NO 67 15,5 C 14,0 km/h (3 Bft)
05.07.2015 15:30 33,1 C 37,5 C 35 % 1022,1 hPa 0,0 mm 8,3 km/h (2 Bft) N-NO 22 15,6 C 21,0 km/h (4 Bft)
05.07.2015 15:35 33,4 C 37,6 C 35 % 1021,9 hPa 0,0 mm 7,3 km/h (2 Bft) W-SW 247 15,8 C 7,0 km/h (2 Bft)
05.07.2015 15:40 33,5 C 37,4 C 36 % 1021,9 hPa 0,0 mm 7,5 km/h (2 Bft) W-SW 247 16,3 C 6,7 km/h (2 Bft)
05.07.2015 15:45 33,5 C 37,2 C 35 % 1021,9 hPa 0,0 mm 9,3 km/h (2 Bft) NW 315 15,9 C 14,2 km/h (3 Bft)
05.07.2015 15:50 33,4 C 37,0 C 36 % 1021,9 hPa 0,0 mm 8,5 km/h (2 Bft) NW 315 16,3 C 10,9 km/h (2 Bft)
05.07.2015 15:55 33,3 C 36,9 C 35 % 1021,8 hPa 0,0 mm 8,5 km/h (2 Bft) NO 45 15,7 C 14,5 km/h (3 Bft)
05.07.2015 16:00 33,3 C 37,3 C 36 % 1021,8 hPa 0,0 mm 6,7 km/h (2 Bft) N-NO 22 16,2 C 7,0 km/h (2 Bft)
05.07.2015 16:05 33,2 C 37,6 C 36 % 1021,8 hPa 0,0 mm 5,4 km/h (1 Bft) NW 315 16,1 C 3,4 km/h (1 Bft)
05.07.2015 16:10 32,9 C 37,4 C 35 % 1021,8 hPa 0,0 mm 6,7 km/h (2 Bft) N-NO 22 15,4 C 8,0 km/h (2 Bft)
05.07.2015 16:15 32,6 C 37,4 C 35 % 1021,6 hPa 0,0 mm 6,2 km/h (2 Bft) O 90 15,1 C 3,4 km/h (1 Bft)
05.07.2015 16:20 32,3 C 38,0 C 35 % 1021,6 hPa 0,0 mm 4,9 km/h (1 Bft) N 360 14,9 C 4,9 km/h (1 Bft)
05.07.2015 16:25 32,3 C 38,2 C 36 % 1021,6 hPa 0,0 mm 4,7 km/h (1 Bft) W 270 15,3 C 6,5 km/h (2 Bft)
05.07.2015 16:30 32,1 C 38,0 C 37 % 1021,6 hPa 0,0 mm 6,0 km/h (2 Bft) W-NW 292 15,5 C 8,5 km/h (2 Bft)
05.07.2015 16:35 32,0 C 38,0 C 37 % 1021,6 hPa 0,0 mm 6,7 km/h (2 Bft) NW 315 15,5 C 3,9 km/h (1 Bft)
05.07.2015 16:40 32,0 C 38,2 C 37 % 1021,6 hPa 0,0 mm 4,4 km/h (1 Bft) S-SW 202 15,5 C 3,1 km/h (1 Bft)
05.07.2015 16:45 32,0 C 38,5 C 37 % 1021,6 hPa 0,0 mm 2,8 km/h (1 Bft) W 270 15,5 C 7,8 km/h (2 Bft)
05.07.2015 16:50 32,0 C 38,8 C 37 % 1021,6 hPa 0,0 mm 2,1 km/h (1 Bft) W-NW 292 15,5 C 4,7 km/h (1 Bft)
05.07.2015 16:55 32,0 C 38,8 C 37 % 1021,4 hPa 0,0 mm 3,4 km/h (1 Bft) W 270 15,5 C 4,1 km/h (1 Bft)
05.07.2015 17:00 32,0 C 38,3 C 36 % 1021,4 hPa 0,0 mm 4,7 km/h (1 Bft) W-NW 292 15,0 C 0,0 km/h (0 Bft)
05.07.2015 17:05 31,9 C 38,5 C 36 % 1021,4 hPa 0,0 mm 2,8 km/h (1 Bft) SW 225 14,9 C 0,0 km/h (0 Bft)
05.07.2015 17:10 31,9 C 37,9 C 36 % 1021,4 hPa 0,0 mm 0,5 km/h (0 Bft) N 360 14,9 C 2,8 km/h (1 Bft)
05.07.2015 17:15 31,9 C 36,7 C 35 % 1021,0 hPa 0,0 mm 2,1 km/h (1 Bft) N-NW 337 14,5 C 6,2 km/h (2 Bft)
05.07.2015 17:20 32,0 C 34,9 C 35 % 1021,0 hPa 0,0 mm 4,9 km/h (1 Bft) O-NO 67 14,6 C 5,4 km/h (1 Bft)
05.07.2015 17:25 32,0 C 34,4 C 35 % 1021,0 hPa 0,0 mm 4,7 km/h (1 Bft) NW 315 14,6 C 5,4 km/h (1 Bft)
05.07.2015 17:30 31,7 C 33,9 C 34 % 1021,0 hPa 0,0 mm 2,3 km/h (1 Bft) NW 315 13,9 C 0,0 km/h (0 Bft)
05.07.2015 17:35 31,6 C 33,9 C 34 % 1020,4 hPa 0,0 mm 2,1 km/h (1 Bft) NW 315 13,8 C 3,1 km/h (1 Bft)
05.07.2015 17:40 31,6 C 33,7 C 36 % 1020,4 hPa 0,0 mm 0,8 km/h (0 Bft) W-NW 292 14,7 C 0,0 km/h (0 Bft)
05.07.2015 17:45 31,6 C 33,7 C 36 % 1020,4 hPa 0,0 mm 0,3 km/h (0 Bft) SW 225 14,7 C 2,6 km/h (1 Bft)
05.07.2015 17:50 31,5 C 33,6 C 36 % 1020,4 hPa 0,0 mm 0,5 km/h (0 Bft) W-SW 247 14,6 C 2,6 km/h (1 Bft)
05.07.2015 17:55 31,5 C 33,5 C 36 % 1020,9 hPa 0,0 mm 0,5 km/h (0 Bft) W-SW 247 14,6 C 0,0 km/h (0 Bft)
05.07.2015 18:00 31,3 C 33,5 C 35 % 1020,9 hPa 0,0 mm 0,3 km/h (0 Bft) W 270 14,0 C 3,4 km/h (1 Bft)
05.07.2015 18:05 31,3 C 33,5 C 35 % 1020,9 hPa 0,0 mm 0,5 km/h (0 Bft) W 270 14,0 C 3,6 km/h (1 Bft)
05.07.2015 18:10 31,3 C 33,3 C 35 % 1020,9 hPa 0,0 mm 0,5 km/h (0 Bft) W 270 14,0 C 0,0 km/h (0 Bft)
05.07.2015 18:15 31,2 C 33,3 C 36 % 1020,8 hPa 0,0 mm 0,5 km/h (0 Bft) S 180 14,3 C 0,0 km/h (0 Bft)
05.07.2015 18:20 31,0 C 33,3 C 37 % 1020,8 hPa 0,0 mm 0,0 km/h (0 Bft) O-NO 67 14,6 C 0,0 km/h (0 Bft)
05.07.2015 18:25 31,0 C 33,2 C 38 % 1020,8 hPa 0,0 mm 0,0 km/h (0 Bft) O-SO 112 15,0 C 0,0 km/h (0 Bft)
05.07.2015 18:30 31,0 C 33,0 C 36 % 1020,8 hPa 0,0 mm 0,3 km/h (0 Bft) S 180 14,2 C 0,0 km/h (0 Bft)
05.07.2015 18:35 30,9 C 33,1 C 37 % 1020,6 hPa 0,0 mm 0,3 km/h (0 Bft) SO 135 14,5 C 0,0 km/h (0 Bft)
05.07.2015 18:40 30,8 C 34,8 C 39 % 1020,6 hPa 0,0 mm 0,0 km/h (0 Bft) SO 135 15,2 C 0,0 km/h (0 Bft)
05.07.2015 18:45 30,5 C 35,9 C 40 % 1020,6 hPa 0,0 mm 0,0 km/h (0 Bft) SO 135 15,3 C 0,0 km/h (0 Bft)
05.07.2015 18:50 30,6 C 37,0 C 39 % 1020,6 hPa 0,0 mm 0,0 km/h (0 Bft) O-NO 67 15,0 C 0,0 km/h (0 Bft)
05.07.2015 18:55 30,6 C 37,2 C 39 % 1020,6 hPa 0,0 mm 0,3 km/h (0 Bft) NO 45 15,0 C 3,1 km/h (1 Bft)
05.07.2015 19:00 30,4 C 37,2 C 42 % 1020,6 hPa 0,0 mm 0,0 km/h (0 Bft) O 90 16,0 C 0,0 km/h (0 Bft)
05.07.2015 19:05 30,2 C 37,1 C 43 % 1020,6 hPa 0,0 mm 0,0 km/h (0 Bft) O-NO 67 16,2 C 0,0 km/h (0 Bft)
05.07.2015 19:10 30,1 C 37,2 C 44 % 1020,6 hPa 0,0 mm 0,0 km/h (0 Bft) S-SO 157 16,5 C 0,0 km/h (0 Bft)
05.07.2015 19:15 30,0 C 37,0 C 44 % 1020,5 hPa 0,0 mm 0,0 km/h (0 Bft) S 180 16,4 C 0,0 km/h (0 Bft)
05.07.2015 19:20 29,8 C 36,7 C 45 % 1020,5 hPa 0,0 mm 0,0 km/h (0 Bft) SO 135 16,6 C 0,0 km/h (0 Bft)
05.07.2015 19:23 29,6 C 36,4 C 46 % 1020,5 hPa 0,0 mm 0,0 km/h (0 Bft) S-SO 157 16,7 C 0,0 km/h (0 Bft)
05.07.2015 19:24 29,6 C 36,4 C 46 % 1020,5 hPa 0,0 mm 0,0 km/h (0 Bft) S-SO 157 16,7 C 0,0 km/h (0 Bft)
05.07.2015 19:25 29,6 C 36,4 C 46 % 1020,5 hPa 0,0 mm 0,0 km/h (0 Bft) S-SO 157 16,7 C 0,0 km/h (0 Bft)
05.07.2015 19:30 29,4 C 36,2 C 46 % 1020,5 hPa 0,0 mm 0,0 km/h (0 Bft) S-SO 157 16,5 C 0,0 km/h (0 Bft)
05.07.2015 19:35 29,4 C 36,0 C 44 % 1020,6 hPa 0,0 mm 0,0 km/h (0 Bft) SO 135 15,8 C 0,0 km/h (0 Bft)
05.07.2015 19:40 29,4 C 36,0 C 43 % 1020,6 hPa 0,0 mm 0,0 km/h (0 Bft) O-SO 112 15,5 C 0,0 km/h (0 Bft)
05.07.2015 19:45 29,4 C 35,5 C 42 % 1020,6 hPa 0,0 mm 0,0 km/h (0 Bft) SO 135 15,1 C 0,0 km/h (0 Bft)
05.07.2015 19:50 29,3 C 34,6 C 45 % 1020,6 hPa 0,0 mm 0,0 km/h (0 Bft) S-SO 157 16,1 C 0,0 km/h (0 Bft)
05.07.2015 19:55 28,6 C 33,6 C 47 % 1020,4 hPa 0,0 mm 0,0 km/h (0 Bft) O-NO 67 16,2 C 0,0 km/h (0 Bft)
05.07.2015 20:00 27,9 C 31,9 C 48 % 1020,4 hPa 0,0 mm 0,0 km/h (0 Bft) SO 135 15,9 C 0,0 km/h (0 Bft)
05.07.2015 20:05 27,9 C 30,8 C 47 % 1020,4 hPa 0,0 mm 0,3 km/h (0 Bft) SO 135 15,5 C 2,8 km/h (1 Bft)
05.07.2015 20:10 27,5 C 29,7 C 49 % 1020,4 hPa 0,0 mm 2,1 km/h (1 Bft) S-SO 157 15,8 C 4,7 km/h (1 Bft)
05.07.2015 20:15 26,9 C 29,0 C 50 % 1020,2 hPa 0,0 mm 3,4 km/h (1 Bft) S-SO 157 15,6 C 6,7 km/h (2 Bft)
05.07.2015 20:20 26,4 C 27,9 C 53 % 1020,2 hPa 0,0 mm 3,9 km/h (1 Bft) S-SO 157 16,0 C 5,4 km/h (1 Bft)
05.07.2015 20:25 26,2 C 27,4 C 53 % 1020,2 hPa 0,0 mm 3,6 km/h (1 Bft) S-SO 157 15,8 C 4,4 km/h (1 Bft)
05.07.2015 20:30 25,8 C 26,8 C 55 % 1020,2 hPa 0,0 mm 2,1 km/h (1 Bft) S-SO 157 16,1 C 3,9 km/h (1 Bft)
05.07.2015 20:35 25,8 C 26,7 C 55 % 1020,1 hPa 0,0 mm 1,3 km/h (1 Bft) SO 135 16,1 C 4,1 km/h (1 Bft)
05.07.2015 20:40 25,1 C 26,6 C 57 % 1020,1 hPa 0,0 mm 1,8 km/h (1 Bft) S 180 16,0 C 0,0 km/h (0 Bft)
05.07.2015 20:45 24,7 C 26,5 C 58 % 1020,1 hPa 0,0 mm 1,3 km/h (1 Bft) S-SO 157 15,9 C 0,0 km/h (0 Bft)
05.07.2015 20:50 24,0 C 26,3 C 60 % 1020,1 hPa 0,0 mm 1,0 km/h (0 Bft) S 180 15,7 C 2,6 km/h (1 Bft)
05.07.2015 20:55 23,8 C 26,0 C 60 % 1020,2 hPa 0,0 mm 1,3 km/h (1 Bft) S 180 15,6 C 3,6 km/h (1 Bft)
05.07.2015 21:00 23,7 C 25,4 C 60 % 1020,2 hPa 0,0 mm 0,8 km/h (0 Bft) S-SO 157 15,5 C 0,0 km/h (0 Bft)
05.07.2015 21:05 23,7 C 25,0 C 60 % 1020,2 hPa 0,0 mm 0,5 km/h (0 Bft) S-SO 157 15,5 C 0,0 km/h (0 Bft)
05.07.2015 21:10 23,2 C 24,4 C 60 % 1020,2 hPa 0,0 mm 0,0 km/h (0 Bft) S-SO 157 15,0 C 0,0 km/h (0 Bft)
05.07.2015 21:15 23,1 C 24,1 C 60 % 1020,1 hPa 0,0 mm 0,0 km/h (0 Bft) S-SO 157 14,9 C 0,0 km/h (0 Bft)
05.07.2015 21:20 23,0 C 23,7 C 59 % 1020,1 hPa 0,0 mm 0,0 km/h (0 Bft) S-SO 157 14,5 C 0,0 km/h (0 Bft)
05.07.2015 21:25 23,0 C 23,4 C 59 % 1020,1 hPa 0,0 mm 0,0 km/h (0 Bft) S-SO 157 14,5 C 0,0 km/h (0 Bft)
05.07.2015 21:30 23,1 C 23,2 C 59 % 1020,1 hPa 0,0 mm 0,0 km/h (0 Bft) S 180 14,6 C 0,0 km/h (0 Bft)
05.07.2015 21:35 23,1 C 23,2 C 60 % 1020,0 hPa 0,0 mm 0,0 km/h (0 Bft) S 180 14,9 C 0,0 km/h (0 Bft)
05.07.2015 21:40 22,9 C 22,8 C 61 % 1020,0 hPa 0,0 mm 0,0 km/h (0 Bft) S-SO 157 15,0 C 0,0 km/h (0 Bft)
05.07.2015 21:45 22,7 C 22,7 C 61 % 1020,0 hPa 0,0 mm 0,0 km/h (0 Bft) S-SO 157 14,8 C 0,0 km/h (0 Bft)
05.07.2015 21:50 22,6 C 22,5 C 61 % 1020,0 hPa 0,0 mm 0,0 km/h (0 Bft) SO 135 14,7 C 0,0 km/h (0 Bft)
05.07.2015 21:55 22,5 C 22,4 C 61 % 1020,2 hPa 0,0 mm 0,0 km/h (0 Bft) SO 135 14,6 C 0,0 km/h (0 Bft)
05.07.2015 22:00 22,3 C 22,2 C 61 % 1020,2 hPa 0,0 mm 0,0 km/h (0 Bft) SO 135 14,4 C 0,0 km/h (0 Bft)
05.07.2015 22:05 22,4 C 22,3 C 61 % 1020,2 hPa 0,0 mm 0,0 km/h (0 Bft) SO 135 14,5 C 0,0 km/h (0 Bft)
05.07.2015 22:10 22,5 C 22,3 C 61 % 1020,2 hPa 0,0 mm 0,0 km/h (0 Bft) O 90 14,6 C 0,0 km/h (0 Bft)
05.07.2015 22:15 22,3 C 22,1 C 61 % 1020,2 hPa 0,0 mm 0,0 km/h (0 Bft) O 90 14,4 C 0,0 km/h (0 Bft)
05.07.2015 22:20 21,8 C 21,7 C 61 % 1020,2 hPa 0,0 mm 0,0 km/h (0 Bft) O 90 13,9 C 0,0 km/h (0 Bft)
05.07.2015 22:25 21,6 C 21,5 C 61 % 1020,2 hPa 0,0 mm 0,0 km/h (0 Bft) O 90 13,7 C 0,0 km/h (0 Bft)
05.07.2015 22:30 21,6 C 21,4 C 62 % 1020,2 hPa 0,0 mm 0,0 km/h (0 Bft) O 90 14,0 C 0,0 km/h (0 Bft)
05.07.2015 22:35 21,5 C 21,3 C 62 % 1020,2 hPa 0,0 mm 0,0 km/h (0 Bft) O 90 13,9 C 0,0 km/h (0 Bft)
05.07.2015 22:40 21,5 C 21,3 C 63 % 1020,2 hPa 0,0 mm 0,3 km/h (0 Bft) O-SO 112 14,2 C 0,0 km/h (0 Bft)
05.07.2015 22:45 21,6 C 21,4 C 63 % 1020,2 hPa 0,0 mm 0,5 km/h (0 Bft) S 180 14,2 C 4,9 km/h (1 Bft)
05.07.2015 22:50 21,5 C 21,4 C 64 % 1020,2 hPa 0,0 mm 1,0 km/h (0 Bft) O-SO 112 14,4 C 0,0 km/h (0 Bft)
05.07.2015 22:55 21,3 C 21,2 C 63 % 1020,4 hPa 0,0 mm 1,6 km/h (1 Bft) W-SW 247 14,0 C 2,8 km/h (1 Bft)
05.07.2015 23:00 21,6 C 21,5 C 63 % 1020,4 hPa 0,0 mm 2,1 km/h (1 Bft) S-SO 157 14,2 C 0,0 km/h (0 Bft)
05.07.2015 23:05 21,5 C 21,4 C 63 % 1020,4 hPa 0,0 mm 1,8 km/h (1 Bft) O-SO 112 14,2 C 0,0 km/h (0 Bft)
05.07.2015 23:10 20,9 C 20,9 C 64 % 1020,4 hPa 0,0 mm 0,0 km/h (0 Bft) O-SO 112 13,8 C 0,0 km/h (0 Bft)
05.07.2015 23:15 20,8 C 20,7 C 64 % 1020,6 hPa 0,0 mm 0,0 km/h (0 Bft) O-SO 112 13,7 C 0,0 km/h (0 Bft)
05.07.2015 23:20 20,4 C 20,4 C 64 % 1020,6 hPa 0,0 mm 0,0 km/h (0 Bft) O-SO 112 13,4 C 0,0 km/h (0 Bft)
05.07.2015 23:25 20,5 C 20,4 C 66 % 1020,6 hPa 0,0 mm 0,3 km/h (0 Bft) N-NO 22 13,9 C 0,0 km/h (0 Bft)
05.07.2015 23:30 20,5 C 20,4 C 66 % 1020,6 hPa 0,0 mm 0,3 km/h (0 Bft) W-NW 292 13,9 C 0,0 km/h (0 Bft)
05.07.2015 23:35 20,3 C 20,2 C 66 % 1020,7 hPa 0,0 mm 1,6 km/h (1 Bft) S 180 13,7 C 10,6 km/h (2 Bft)
05.07.2015 23:40 21,4 C 21,3 C 64 % 1020,7 hPa 0,0 mm 5,2 km/h (1 Bft) S 180 14,3 C 10,9 km/h (2 Bft)
05.07.2015 23:45 21,8 C 21,7 C 62 % 1020,7 hPa 0,0 mm 7,5 km/h (2 Bft) SW 225 14,2 C 12,7 km/h (3 Bft)
05.07.2015 23:50 23,4 C 23,3 C 56 % 1020,7 hPa 0,0 mm 9,8 km/h (2 Bft) S 180 14,1 C 13,5 km/h (3 Bft)
05.07.2015 23:55 23,7 C 23,7 C 53 % 1020,6 hPa 0,0 mm 10,1 km/h (2 Bft) S-SO 157 13,5 C 8,5 km/h (2 Bft)
_ Min-Zeit 05:00 05:00 17:35 21:50 - 23:20 - - 01:30 23:30
Minimum _ 16,6 C 16,5 C 34 % 1020,0 hPa - 0,0 km/h (0 Bft) - - 12,5 C 0,0 km/h (0 Bft)
_ Max-Zeit 15:15 16:55 05:15 00:30 23:55 23:55 - - 10:05 15:30
Maximum _ 33,8 C 38,8 C 79 % 1025,0 hPa 0,0 mm 10,1 km/h
S-SO (2 Bft)
- - 19,0 C 21,0 km/h
N-NO (4 Bft)
Durchschnitt _ 25,6 C 28,7 C 55 % 1022,6 hPa #0,0 mm 1,9 km/h (1 Bft) O-NO - 15,2 C 2,7 km/h (1 Bft)